EW0349 Weather Reports


time (UTC)temp
F
wind
direction
speed
knots
gust
knots
rain 1hr
in
rain 24hr
in
rain mn
in
humidity
%
barometer
mb
20260831184532 68 113 0.0 3.5 0.00 0.00 0.00 56 1010.1
20260831183028 67 344 0.0 2.6 0.00 0.00 0.00 56 1010.3
20260831181523 66 283 0.0 2.6 0.00 0.00 0.00 56 1010.3
20260831180018 66 34 0.9 2.6 0.00 0.00 0.00 55 1010.4
20260831174515 65 85 0.0 1.7 0.00 0.00 0.00 55 1010.5
20260831173014 63 44 0.0 2.6 0.00 0.00 0.00 55 1010.7
20260831171511 62 13 0.0 2.6 0.00 0.00 0.00 53 1010.9
20260831170001 61 46 0.0 2.6 0.00 0.00 0.00 50 1010.9
20260831164608 60 27 1.7 3.5 0.00 0.00 0.00 46 1011.1
20260831163056 58 30 0.0 3.5 0.00 0.00 0.00 37 1011.3
20260831161547 58 30 0.9 2.6 0.00 0.00 0.00 29 1011.4
20260831160047 57 30 0.0 2.6 0.00 0.00 0.00 13 1011.4
20260831154539 55 27 0.0 2.6 0.00 0.00 0.00 100 1011.4
20260831153042 54 11 0.0 1.7 0.00 0.00 0.00 100 1011.4
20260831151530 52 11 0.0 2.6 0.00 0.00 0.00 100 1011.6
20260831150033 51 18 0.0 0.9 0.00 0.00 0.00 100 1011.4
20260831144521 50 18 0.0 0.0 0.00 0.00 0.00 100 1011.6
20260831143017 49 18 0.0 0.0 0.00 0.00 0.00 100 1011.5
20260831141512 49 18 0.0 0.0 0.00 0.00 0.00 100 1011.4
20260831140012 49 18 0.0 0.9 0.00 0.00 0.00 100 1011.5
20260831134504 49 18 0.0 0.0 0.00 0.00 0.00 100 1011.5
20260831133100 49 18 0.0 0.0 0.00 0.00 0.00 100 1011.5
20260831131555 50 18 0.0 0.0 0.00 0.00 0.00 100 1011.6
20260831130051 50 18 0.0 0.9 0.00 0.00 0.00 5 1011.7
20260831124558 50 18 0.0 0.0 0.00 0.00 0.00 7 1011.8
20260831123144 51 18 0.0 0.0 0.00 0.00 0.00 7 1011.8
20260831121537 52 18 0.0 0.0 0.00 0.00 0.00 7 1011.9
20260831120041 52 18 0.0 0.0 0.00 0.00 0.00 8 1011.9
20260831114538 52 18 0.0 0.0 0.00 0.00 0.00 10 1012.0
20260831113026 52 18 0.0 0.0 0.00 0.00 0.00 13 1012.1
20260831111522 53 18 0.0 0.0 0.00 0.00 0.00 13 1012.1
20260831110021 53 18 0.0 0.0 0.00 0.00 0.00 16 1012.2
20260831104529 53 18 0.0 0.0 0.00 0.00 0.00 16 1012.2
20260831103021 53 18 0.0 0.0 0.00 0.00 0.00 18 1012.2
20260831101515 54 18 0.0 0.0 0.00 0.00 0.00 25 1012.3
20260831100012 54 18 0.0 0.0 0.00 0.00 0.00 24 1012.5
20260831094510 54 18 0.0 0.0 0.00 0.00 0.00 30 1012.6
20260831093006 55 18 0.0 0.0 0.00 0.00 0.00 33 1012.7
20260831091505 55 18 0.0 0.0 0.00 0.00 0.00 37 1012.8
20260831090106 56 18 0.0 0.0 0.00 0.00 0.00 39 1013.1
20260831084559 56 18 0.0 0.9 0.00 0.00 0.00 39 1013.2
20260831083103 56 18 0.0 0.0 0.00 0.00 0.00 41 1013.3
20260831081601 56 18 0.0 0.0 0.00 0.00 0.00 45 1013.3
20260831080053 57 18 0.0 0.0 0.00 0.00 0.00 49 1013.4
20260831074550 57 18 0.0 0.0 0.00 0.00 0.00 51 1013.6
20260831073055 57 18 0.0 0.0 0.00 0.00 0.00 54 1013.6
20260831071545 58 18 0.0 0.0 0.00 0.00 0.00 56 1013.8
20260831070049 58 18 0.0 0.9 0.00 0.00 0.00 58 1013.9
20260831064540 59 18 0.0 1.7 0.00 0.00 0.00 59 1014.1
20260831063032 59 18 0.0 0.9 0.00 0.00 0.00 61 1014.1
20260831061528 59 18 0.0 0.9 0.00 0.00 0.00 63 1014.3
20260831060024 60 18 0.0 1.7 0.00 0.00 0.00 64 1014.4
20260831054523 60 18 0.0 1.7 0.00 0.00 0.00 64 1014.4
20260831053015 61 18 0.0 2.6 0.00 0.00 0.00 64 1014.6
20260831051510 61 18 0.0 0.9 0.00 0.00 0.00 64 1014.7
20260831050005 62 18 0.0 2.6 0.00 0.00 0.00 63 1014.8
20260831044502 62 19 0.9 2.6 0.00 0.00 0.00 63 1014.9
20260831043057 63 21 0.0 3.5 0.00 0.00 0.00 62 1015.0
20260831041603 63 17 0.9 3.5 0.00 0.00 0.00 61 1014.9
20260831040049 64 14 0.9 3.5 0.00 0.00 0.00 60 1014.9
20260831034544 64 16 0.9 2.6 0.00 0.00 0.00 60 1014.8
20260831033039 65 19 0.9 3.5 0.00 0.00 0.00 59 1014.7
20260831031540 65 5 0.9 7.0 0.00 0.00 0.00 60 1014.8
20260831030030 66 17 0.9 4.3 0.00 0.00 0.00 59 1014.8
20260831024528 67 24 0.9 3.5 0.00 0.00 0.00 58 1014.8
20260831023021 68 24 0.9 4.3 0.00 0.00 0.00 56 1014.8
20260831021517 69 10 0.9 5.2 0.00 0.00 0.00 55 1014.9
20260831020012 70 22 1.7 4.3 0.00 0.00 0.00 53 1014.9
20260831014512 70 12 0.0 5.2 0.00 0.00 0.00 53 1014.9
20260831013004 71 97 0.9 5.2 0.00 0.00 0.00 51 1015.1
20260831011612 71 18 1.7 6.1 0.00 0.00 0.00 51 1015.2
20260831010055 71 16 2.6 6.1 0.00 0.00 0.00 50 1015.3
20260831004551 72 44 1.7 4.3 0.00 0.00 0.00 50 1015.5
20260831003046 72 22 0.9 5.2 0.00 0.00 0.00 49 1015.7
20260831001551 72 44 0.9 5.2 0.00 0.00 0.00 49 1015.8
20260831000037 72 15 3.5 6.1 0.00 0.00 0.00 48 1015.9
20260830234550 72 9 1.7 5.2 0.00 0.00 0.00 49 1016.1
20260830233032 73 9 2.6 6.1 0.00 0.00 0.00 46 1016.4
20260830231526 73 57 1.7 5.2 0.00 0.00 0.00 46 1016.5
20260830230031 73 18 1.7 5.2 0.00 0.00 0.00 47 1016.7
20260830224526 73 18 1.7 6.1 0.00 0.00 0.00 44 1016.9
20260830223018 72 127 1.7 8.7 0.00 0.00 0.00 45 1017.2
20260830221507 72 292 1.7 8.7 0.00 0.00 0.00 45 1017.4
20260830220005 72 82 0.9 5.2 0.00 0.00 0.00 46 1017.6
20260830214605 72 22 1.7 8.7 0.00 0.00 0.00 47 1017.9
20260830213100 72 38 1.7 5.2 0.00 0.00 0.00 45 1018.1
20260830211550 72 15 3.5 6.1 0.00 0.00 0.00 45 1018.3
20260830210045 71 19 0.9 6.1 0.00 0.00 0.00 47 1018.3
20260830204540 71 17 1.7 5.2 0.00 0.00 0.00 48 1018.5
20260830203036 70 106 0.9 7.0 0.00 0.00 0.00 50 1018.6
20260830201602 70 69 1.7 4.3 0.00 0.00 0.00 50 1018.9
20260830200027 69 156 0.9 5.2 0.00 0.00 0.00 52 1019.0
20260830194523 69 17 2.6 5.2 0.00 0.00 0.00 51 1019.2
20260830193019 68 32 0.0 3.5 0.00 0.00 0.00 52 1019.5
20260830191517 67 36 0.9 4.3 0.00 0.00 0.00 53 1019.7
20260830190013 66 19 2.6 7.0 0.00 0.00 0.00 53 1019.9